Location: Sternwarte_Laufen
(47.9344°N, 12.9346°E)
Time: 04:36:19
(UTC+02:00)

Tiangong 1 - Visible Passes

Search period start: 28 July 2017 00:00
Search period end: 07 August 2017 00:00
Orbit: 315 x 342 km, 42.8° (Epoch: 26 July)

Date Brightness Start Highest point End Pass type
(mag) Time Alt. Az. Time Alt. Az. Time Alt. Az.
29 Jul 3.1 04:44:29 10° S 04:45:55 13° SSE 04:47:21 10° SE visible
30 Jul 2.5 05:01:23 10° SW 05:03:31 20° SSE 05:05:39 10° ESE visible
31 Jul 3.3 03:46:56 12° SE 03:46:56 12° SE 03:47:29 10° SE visible
01 Aug 2.5 04:03:46 19° SSE 04:03:46 19° SSE 04:05:47 10° ESE visible
02 Aug 2.0 04:20:36 23° SSW 04:21:13 25° S 04:23:34 10° ESE visible
03 Aug 1.9 04:37:27 18° SW 04:38:44 27° S 04:41:08 10° ESE visible
04 Aug 3.6 03:23:18 11° ESE 03:23:18 11° ESE 03:23:28 10° ESE visible
04 Aug 2.1 04:54:22 13° WSW 04:56:12 23° S 04:58:28 10° SE visible
05 Aug 3.1 03:40:19 14° SE 03:40:19 14° SE 03:40:57 10° ESE visible
05 Aug 2.5 05:11:42 10° WSW 05:13:34 17° SSW 05:15:26 10° SSE visible
06 Aug 3.0 03:57:29 15° SE 03:57:29 15° SE 03:58:13 10° SE visible
